Guest
แชร์ หัวข้อ โพสต์โดย อ่าน ตอบ โพสต์ล่าสุด
rbrabbit 8,309 7 18/01/2014 03:09:42
Momay 1,147 5 18/01/2014 02:37:18
Me4tspin 945 2 18/01/2014 02:25:22
NUTTANICK 1,007 4 18/01/2014 01:01:20
JAS-39 786 1 17/01/2014 23:22:32
nongaloha 703 1 17/01/2014 23:20:37
porparty 831 5 17/01/2014 22:24:42
สมพร 687 2 17/01/2014 22:24:35
มือใหม่หัวใจว้า... 963 4 17/01/2014 22:11:43
taskmasterpp 700 2 17/01/2014 19:25:25
gamonoi 742 2 17/01/2014 17:57:35
satinn 1,429 5 17/01/2014 17:34:27
greeny057 851 1 17/01/2014 17:03:14
soryimlate 981 11 17/01/2014 16:00:42
zlakeaw 982 1 17/01/2014 15:17:48
toot 660 2 17/01/2014 15:14:39
BFMV3003 1,209 22 17/01/2014 13:16:27
nongaloha 823 2 17/01/2014 12:32:40
Parinnut 1,453 3 17/01/2014 09:24:46
Progreso 3,611 6 17/01/2014 08:33:00
hippoeg6 1,096 4 17/01/2014 02:47:27
heavyhex 1,592 19 17/01/2014 02:39:13
wattikorn 895 5 17/01/2014 01:57:31
champ2526 1,081 5 17/01/2014 00:12:00
Bom_baysinton 1,272 5 16/01/2014 23:19:47
flook16comza 1,109 4 16/01/2014 22:55:49
panda14 972 7 16/01/2014 22:25:17
mop01zeez 742 3 16/01/2014 22:23:33
sugarmaple 1,281 6 16/01/2014 22:12:40
Russianoptic 808 3 16/01/2014 19:56:05
punfree 2,923 19 16/01/2014 19:11:29
sommeawaya 757 0 16/01/2014 17:28:56
exxy112112 660 2 16/01/2014 17:19:29
Nickkk 740 2 16/01/2014 17:05:17
taskmasterpp 729 1 16/01/2014 16:18:45
dew22799 1,365 13 16/01/2014 16:05:45
Channpat 1,392 7 16/01/2014 15:50:53
toonmanga 1,037 2 16/01/2014 14:42:03
templeboy92 1,689 30 16/01/2014 14:19:17
สมพงษ์ 8,725 14 16/01/2014 13:44:07
nexus 895 3 16/01/2014 12:08:38
หวัดดีชาวร๊อก 879 4 16/01/2014 11:51:01
sanpasilp 981 2 16/01/2014 11:33:15
headfi 772 1 16/01/2014 11:23:54
sukonthamarn 792 1 16/01/2014 11:22:37
codenameexe 973 6 16/01/2014 11:16:51
Bad Cat Company 831 1 16/01/2014 11:11:30
NookTurboza 997 1 16/01/2014 10:51:23
วาเลนไทน์ 1,230 24 16/01/2014 02:50:28
pim1595 5,762 11 16/01/2014 01:57:32
32,451 - 32,500 of 90,003 items : << 645646647648649650651652653654655 >>

ช่องทางการติดต่ออื่น

  • Munkonggadget
  • Munkonggadget Reviews
  • Munkonggadget Reviews
  • Munkonggadget Contact Us